Terminal Aerodrome Forecast
Issued by NWS Mt. Holly, NJ

Home | Current Version | Previous Version | Text Only | Print | Product List | Glossary On
Versions: 1 2 3 4 5 6 7 8 9 10 11 12 13 14 15 16 17 18 19 20 21 22 23 24 25 26 27 28 29 30 31 32 33 34 35 36 37 38 39 40 41 42 43 44 45 46 47 48 49 50
975
FTUS41 KPHI 232323
TAFABE
TAF
KABE 232323Z 2400/2424 06015G25KT 4SM RA BR OVC020
      TEMPO 2402/2406 3SM RAPL BR OVC010
     FM240600 01014G24KT 3SM -RA BR OVC007
     FM241800 34012G22KT P6SM OVC010
     FM242300 32010KT P6SM OVC025=

USA.gov is the U.S. government's official web portal to all federal, state and local government web resources and services.